DLONG RJFU-RJAA

Flight info

Callsign DLONG
Flight time 1h 27m
Altitude 37000
Route OOITA Y41 DONAR BOTAN KABIL KRE V37 PADOC Y43 ISEBI Y81 RUTAS
Aircraft A320/M-SDE3FGHIRWY/LB1

Departure

Time 2026-04-15 20:49
Airport Nagasaki Airport (RJFU)

Arrival

Time 2026-04-15 22:17
Airport Narita International Airport (RJAA)
Time Latitude Longitude Altitude Speed Heading
2026-04-15 20:24 32.91474 129.92089 23 ft 0 kts 47°
2026-04-15 20:38 32.91467 129.92080 21 ft 4 kts 47°
2026-04-15 20:38 32.91449 129.92056 22 ft 4 kts 49°
2026-04-15 20:38 32.91431 129.92031 24 ft 4 kts 50°
2026-04-15 20:39 32.91415 129.92006 23 ft 4 kts 53°
2026-04-15 20:39 32.91399 129.91980 23 ft 4 kts 62°
2026-04-15 20:39 32.91391 129.91952 23 ft 4 kts 105°
2026-04-15 20:39 32.91393 129.91942 22 ft 0 kts 138°
2026-04-15 20:42 32.91381 129.91955 20 ft 3 kts 138°
2026-04-15 20:42 32.91360 129.91978 21 ft 5 kts 139°
2026-04-15 20:42 32.91328 129.92011 20 ft 7 kts 139°
2026-04-15 20:43 32.91282 129.92059 20 ft 11 kts 138°
2026-04-15 20:43 32.91218 129.92129 19 ft 14 kts 137°
2026-04-15 20:43 32.91137 129.92216 19 ft 18 kts 138°
2026-04-15 20:43 32.91035 129.92324 16 ft 21 kts 137°
2026-04-15 20:44 32.90930 129.92435 19 ft 18 kts 139°
2026-04-15 20:44 32.90839 129.92525 20 ft 14 kts 153°
2026-04-15 20:44 32.90768 129.92499 22 ft 10 kts 228°
2026-04-15 20:44 32.90757 129.92483 21 ft 0 kts 229°
2026-04-15 20:47 32.90750 129.92473 22 ft 5 kts 229°
2026-04-15 20:47 32.90726 129.92439 22 ft 5 kts 239°
2026-04-15 20:47 32.90735 129.92387 23 ft 9 kts 289°
2026-04-15 20:48 32.90770 129.92332 24 ft 7 kts 316°
2026-04-15 20:48 32.90803 129.92297 22 ft 6 kts 318°
2026-04-15 20:48 32.90860 129.92236 21 ft 21 kts 319°
2026-04-15 20:48 32.91058 129.92027 22 ft 62 kts 317°
2026-04-15 20:49 32.91543 129.91507 21 ft 124 kts 318°
2026-04-15 20:49 32.92313 129.90695 77 ft 165 kts 321°
2026-04-15 20:49 32.93191 129.89803 699 ft 170 kts 322°
2026-04-15 20:49 32.94125 129.88818 1118 ft 189 kts 322°
2026-04-15 20:50 32.95155 129.87716 1499 ft 210 kts 322°
2026-04-15 20:50 32.96300 129.86472 1893 ft 234 kts 322°
2026-04-15 20:50 32.97562 129.85114 2465 ft 252 kts 324°
2026-04-15 20:50 32.98881 129.83702 3306 ft 260 kts 324°
2026-04-15 20:51 33.00258 129.82282 4123 ft 263 kts 333°
2026-04-15 20:51 33.01928 129.81568 5016 ft 254 kts 359°
2026-04-15 20:51 33.03651 129.81803 5917 ft 250 kts 22°
2026-04-15 20:51 33.05090 129.82894 6717 ft 253 kts 45°
2026-04-15 20:52 33.05818 129.84030 7035 ft 268 kts 59°
2026-04-15 20:52 33.06694 129.86115 7359 ft 290 kts 60°
2026-04-15 20:52 33.07834 129.88030 8392 ft 283 kts 45°
2026-04-15 20:52 33.09247 129.89625 9435 ft 277 kts 39°
2026-04-15 20:53 33.10707 129.91129 10265 ft 279 kts 38°
2026-04-15 20:53 33.12186 129.92694 10850 ft 292 kts 39°
2026-04-15 20:53 33.13672 129.94510 10936 ft 324 kts 52°
2026-04-15 20:53 33.14534 129.97092 11282 ft 349 kts 79°
2026-04-15 20:54 33.14313 130.00034 11821 ft 368 kts 106°
2026-04-15 20:54 33.13081 130.02751 12477 ft 377 kts 122°
2026-04-15 20:54 33.11604 130.05365 13166 ft 383 kts 122°
2026-04-15 20:54 33.10091 130.08005 13800 ft 389 kts 123°
2026-04-15 20:55 33.08550 130.10688 14369 ft 394 kts 123°
2026-04-15 20:55 33.06997 130.13404 14938 ft 399 kts 123°
2026-04-15 20:55 33.05430 130.16162 15511 ft 404 kts 123°
2026-04-15 20:55 33.03854 130.18955 16069 ft 409 kts 123°
2026-04-15 20:56 33.02260 130.21782 16633 ft 413 kts 123°
2026-04-15 20:56 33.00693 130.24676 17178 ft 418 kts 118°
2026-04-15 20:56 32.99523 130.27805 17702 ft 421 kts 107°
2026-04-15 20:56 32.98853 130.31252 18240 ft 423 kts 95°
2026-04-15 20:57 32.98747 130.34711 18688 ft 425 kts 83°
2026-04-15 20:57 32.99189 130.38186 19146 ft 425 kts 74°
2026-04-15 20:57 32.99816 130.41645 19619 ft 430 kts 74°
2026-04-15 20:57 33.00450 130.45144 20097 ft 434 kts 75°
2026-04-15 20:58 33.01083 130.48679 20590 ft 439 kts 75°
2026-04-15 20:58 33.01718 130.52254 21065 ft 443 kts 75°
2026-04-15 20:58 33.02357 130.55865 21529 ft 447 kts 75°
2026-04-15 20:58 33.03000 130.59515 21991 ft 452 kts 75°
2026-04-15 20:59 33.03645 130.63190 22429 ft 456 kts 75°
2026-04-15 20:59 33.04296 130.66902 22878 ft 460 kts 75°
2026-04-15 20:59 33.04954 130.70651 23326 ft 463 kts 76°
2026-04-15 20:59 33.05617 130.74425 23723 ft 467 kts 76°
2026-04-15 21:00 33.06283 130.78229 24055 ft 471 kts 76°
2026-04-15 21:00 33.06955 130.82065 24421 ft 474 kts 75°
2026-04-15 21:00 33.07633 130.85928 24755 ft 478 kts 75°
2026-04-15 21:00 33.08315 130.89821 25087 ft 481 kts 75°
2026-04-15 21:01 33.08998 130.93737 25409 ft 484 kts 75°
2026-04-15 21:01 33.09682 130.97681 25745 ft 487 kts 75°
2026-04-15 21:01 33.10368 131.01652 26080 ft 490 kts 75°
2026-04-15 21:01 33.10713 131.03648 26235 ft 492 kts 75°
2026-04-15 21:03 33.11390 131.07568 26566 ft 494 kts 75°
2026-04-15 21:03 33.12084 131.11595 26880 ft 497 kts 75°
2026-04-15 21:03 33.12404 131.13451 27022 ft 498 kts 75°
2026-04-15 21:04 33.12970 131.16751 27274 ft 501 kts 75°
2026-04-15 21:04 33.13669 131.20835 27561 ft 504 kts 75°
2026-04-15 21:04 33.13729 131.21191 27584 ft 504 kts 75°
2026-04-15 21:05 33.14145 131.23601 27718 ft 505 kts 75°
2026-04-15 21:05 33.14415 131.25177 27810 ft 506 kts 75°
2026-04-15 21:05 33.14740 131.27068 27934 ft 507 kts 75°
2026-04-15 21:05 33.14840 131.27655 27983 ft 508 kts 75°
2026-04-15 21:06 33.15548 131.31794 28271 ft 510 kts 75°
2026-04-15 21:06 33.16253 131.35952 28533 ft 513 kts 75°
2026-04-15 21:06 33.16961 131.40131 28795 ft 515 kts 75°
2026-04-15 21:06 33.17673 131.44330 29045 ft 517 kts 75°
2026-04-15 21:07 33.18388 131.48557 29291 ft 520 kts 75°
2026-04-15 21:07 33.19102 131.52792 29525 ft 522 kts 75°
2026-04-15 21:07 33.19818 131.57051 29768 ft 524 kts 75°
2026-04-15 21:07 33.20536 131.61325 29996 ft 526 kts 75°
2026-04-15 21:08 33.21252 131.65607 30283 ft 526 kts 75°
2026-04-15 21:08 33.21966 131.69889 30546 ft 526 kts 75°
2026-04-15 21:08 33.22685 131.74178 30792 ft 527 kts 75°
2026-04-15 21:08 33.23413 131.78468 31022 ft 528 kts 75°
2026-04-15 21:09 33.24148 131.82768 31259 ft 529 kts 75°
2026-04-15 21:09 33.24886 131.87085 31518 ft 530 kts 75°
2026-04-15 21:09 33.25623 131.91397 31779 ft 531 kts 75°
2026-04-15 21:09 33.26361 131.95731 31996 ft 532 kts 75°
2026-04-15 21:10 33.27096 132.00073 32225 ft 533 kts 75°
2026-04-15 21:10 33.27821 132.04375 32448 ft 535 kts 75°
2026-04-15 21:10 33.28552 132.08744 32683 ft 536 kts 75°
2026-04-15 21:10 33.29284 132.13130 32915 ft 537 kts 75°
2026-04-15 21:11 33.30014 132.17514 33147 ft 538 kts 75°
2026-04-15 21:11 33.30749 132.21902 33377 ft 539 kts 75°
2026-04-15 21:11 33.31484 132.26304 33617 ft 540 kts 75°
2026-04-15 21:11 33.32208 132.30651 33856 ft 541 kts 75°
2026-04-15 21:12 33.32942 132.35070 34081 ft 542 kts 75°
2026-04-15 21:12 33.33674 132.39496 34275 ft 543 kts 75°
2026-04-15 21:12 33.34402 132.43923 34489 ft 544 kts 75°
2026-04-15 21:12 33.35022 132.47709 34659 ft 545 kts 75°
2026-04-15 21:13 33.35741 132.52110 34830 ft 547 kts 75°
2026-04-15 21:13 33.36477 132.56579 35014 ft 548 kts 75°
2026-04-15 21:13 33.37219 132.61053 35187 ft 548 kts 75°
2026-04-15 21:13 33.37965 132.65547 35360 ft 549 kts 75°
2026-04-15 21:14 33.38710 132.70039 35526 ft 551 kts 75°
2026-04-15 21:14 33.39456 132.74542 35680 ft 552 kts 75°
2026-04-15 21:14 33.40201 132.79065 35838 ft 553 kts 75°
2026-04-15 21:14 33.40944 132.83597 36036 ft 554 kts 76°
2026-04-15 21:15 33.41681 132.88131 36188 ft 554 kts 76°
2026-04-15 21:15 33.42408 132.92616 36332 ft 556 kts 76°
2026-04-15 21:15 33.43142 132.97169 36486 ft 557 kts 76°
2026-04-15 21:15 33.43874 133.01724 36618 ft 558 kts 76°
2026-04-15 21:16 33.44609 133.06294 36763 ft 559 kts 76°
2026-04-15 21:16 33.45342 133.10871 36930 ft 559 kts 76°
2026-04-15 21:16 33.46077 133.15455 36985 ft 561 kts 76°
2026-04-15 21:17 33.47546 133.24652 36984 ft 562 kts 76°
2026-04-15 21:17 33.48975 133.33882 36978 ft 563 kts 77°
2026-04-15 21:18 33.50378 133.43063 36960 ft 563 kts 77°
2026-04-15 21:18 33.51789 133.52316 36949 ft 563 kts 77°
2026-04-15 21:19 33.53196 133.61567 36955 ft 563 kts 77°
2026-04-15 21:19 33.54048 133.70853 36946 ft 566 kts 91°
2026-04-15 21:20 33.53648 133.80274 36956 ft 566 kts 93°
2026-04-15 21:20 33.53230 133.89698 36960 ft 566 kts 93°
2026-04-15 21:21 33.52822 133.99130 36961 ft 566 kts 94°
2026-04-15 21:21 33.52406 134.08493 36977 ft 566 kts 94°
2026-04-15 21:22 33.51969 134.17919 36969 ft 566 kts 94°
2026-04-15 21:22 33.51523 134.27349 36966 ft 566 kts 94°
2026-04-15 21:23 33.51067 134.36763 36956 ft 566 kts 94°
2026-04-15 21:23 33.50629 134.46228 36958 ft 567 kts 93°
2026-04-15 21:24 33.50237 134.55617 36960 ft 567 kts 93°
2026-04-15 21:24 33.49839 134.65050 36971 ft 567 kts 93°
2026-04-15 21:25 33.49434 134.74497 36957 ft 568 kts 93°
2026-04-15 21:25 33.49018 134.83943 36964 ft 568 kts 94°
2026-04-15 21:26 33.48588 134.93403 36949 ft 569 kts 94°
2026-04-15 21:26 33.48147 135.02882 36947 ft 569 kts 94°
2026-04-15 21:27 33.47713 135.12350 36936 ft 570 kts 94°
2026-04-15 21:27 33.47292 135.21788 36943 ft 570 kts 93°
2026-04-15 21:28 33.46865 135.31284 36925 ft 571 kts 94°
2026-04-15 21:28 33.46437 135.40806 36924 ft 571 kts 93°
2026-04-15 21:29 33.46045 135.50279 36923 ft 572 kts 93°
2026-04-15 21:29 33.45652 135.59798 36925 ft 572 kts 93°
2026-04-15 21:30 33.45233 135.69328 36915 ft 572 kts 94°
2026-04-15 21:30 33.45052 135.78785 36909 ft 571 kts 84°
2026-04-15 21:31 33.47404 135.92678 36910 ft 567 kts 73°
2026-04-15 21:32 33.50091 136.06482 36914 ft 567 kts 73°
2026-04-15 21:32 33.51879 136.15693 36910 ft 567 kts 73°
2026-04-15 21:33 33.53673 136.24911 36913 ft 567 kts 73°
2026-04-15 21:33 33.55446 136.34072 36910 ft 567 kts 73°
2026-04-15 21:34 33.57215 136.43293 36915 ft 567 kts 73°
2026-04-15 21:34 33.58987 136.52546 36915 ft 568 kts 73°
2026-04-15 21:35 33.60750 136.61776 36907 ft 568 kts 74°
2026-04-15 21:35 33.62501 136.71008 36911 ft 567 kts 74°
2026-04-15 21:36 33.64245 136.80251 36906 ft 567 kts 74°
2026-04-15 21:36 33.65972 136.89431 36912 ft 567 kts 74°
2026-04-15 21:37 33.67715 136.98691 36909 ft 567 kts 74°
2026-04-15 21:37 33.69142 137.06372 36908 ft 567 kts 74°
2026-04-15 21:38 33.70265 137.17343 36906 ft 571 kts 87°
2026-04-15 21:38 33.70507 137.25325 36903 ft 571 kts 87°
2026-04-15 21:39 33.70798 137.34807 36902 ft 571 kts 87°
2026-04-15 21:39 33.71076 137.44336 36916 ft 571 kts 87°
2026-04-15 21:40 33.71341 137.53853 36905 ft 570 kts 87°
2026-04-15 21:40 33.71605 137.63382 36897 ft 570 kts 87°
2026-04-15 21:41 33.71868 137.72899 36896 ft 570 kts 87°
2026-04-15 21:41 33.72115 137.82416 36895 ft 570 kts 88°
2026-04-15 21:42 33.72355 137.91932 36891 ft 570 kts 88°
2026-04-15 21:42 33.72594 138.01444 36893 ft 570 kts 88°
2026-04-15 21:43 33.72819 138.10951 36901 ft 570 kts 88°
2026-04-15 21:43 33.73032 138.20465 36884 ft 569 kts 88°
2026-04-15 21:44 33.73240 138.29971 36885 ft 569 kts 88°
2026-04-15 21:44 33.73443 138.39480 36888 ft 569 kts 88°
2026-04-15 21:45 33.73637 138.48933 36895 ft 569 kts 88°
2026-04-15 21:45 33.73829 138.58431 36882 ft 569 kts 88°
2026-04-15 21:46 33.74006 138.67938 36882 ft 569 kts 88°
2026-04-15 21:46 33.74191 138.77436 36878 ft 569 kts 88°
2026-04-15 21:47 33.74762 138.86893 36870 ft 566 kts 76°
2026-04-15 21:47 33.77187 138.95764 36871 ft 554 kts 57°
2026-04-15 21:48 33.81036 139.03692 36871 ft 548 kts 52°
2026-04-15 21:48 33.84981 139.11567 36863 ft 549 kts 52°
2026-04-15 21:49 33.88873 139.19396 36875 ft 549 kts 52°
2026-04-15 21:49 33.92805 139.27294 36863 ft 549 kts 52°
2026-04-15 21:50 33.96734 139.35184 36860 ft 549 kts 52°
2026-04-15 21:50 34.00660 139.43085 36864 ft 549 kts 52°
2026-04-15 21:51 34.04575 139.51002 36862 ft 549 kts 53°
2026-04-15 21:51 34.08729 139.58590 36863 ft 539 kts 43°
2026-04-15 21:52 34.13438 139.65644 36866 ft 539 kts 43°
2026-04-15 21:52 34.18143 139.72722 36863 ft 540 kts 43°
2026-04-15 21:52 34.20493 139.76268 36626 ft 540 kts 43°
2026-04-15 21:53 34.22831 139.79799 35609 ft 546 kts 44°
2026-04-15 21:53 34.25190 139.83369 34344 ft 544 kts 44°
2026-04-15 21:53 34.27545 139.86939 32869 ft 542 kts 45°
2026-04-15 21:53 34.29891 139.90499 31283 ft 540 kts 45°
2026-04-15 21:54 34.32236 139.94058 29850 ft 540 kts 45°
2026-04-15 21:54 34.34559 139.97592 29273 ft 529 kts 45°
2026-04-15 21:54 34.36827 140.01056 28551 ft 523 kts 45°
2026-04-15 21:54 34.39073 140.04485 27848 ft 517 kts 45°
2026-04-15 21:55 34.41304 140.07886 27137 ft 513 kts 45°
2026-04-15 21:55 34.43515 140.11249 26443 ft 509 kts 46°
2026-04-15 21:55 34.45707 140.14615 25740 ft 508 kts 49°
2026-04-15 21:55 34.47647 140.18205 25025 ft 509 kts 53°
2026-04-15 21:56 34.49501 140.21789 24325 ft 507 kts 54°
2026-04-15 21:56 34.51368 140.25410 23634 ft 506 kts 54°
2026-04-15 21:56 34.53232 140.29023 22892 ft 504 kts 54°
2026-04-15 21:56 34.55081 140.32607 22261 ft 498 kts 54°
2026-04-15 21:57 34.56908 140.36158 21740 ft 490 kts 55°
2026-04-15 21:57 34.58695 140.39639 21210 ft 482 kts 55°
2026-04-15 21:57 34.60468 140.43090 20669 ft 477 kts 55°
2026-04-15 21:57 34.62206 140.46472 20045 ft 465 kts 55°
2026-04-15 21:58 34.63900 140.49767 19313 ft 451 kts 56°
2026-04-15 21:58 34.65520 140.52917 18793 ft 443 kts 56°
2026-04-15 21:58 34.67154 140.56097 18187 ft 443 kts 56°
2026-04-15 21:58 34.68786 140.59277 17590 ft 442 kts 56°
2026-04-15 21:59 34.70447 140.62403 16998 ft 438 kts 50°
2026-04-15 21:59 34.72525 140.65043 16475 ft 429 kts 37°
2026-04-15 21:59 34.75016 140.66970 15970 ft 418 kts 21°
2026-04-15 21:59 34.77691 140.68098 15473 ft 407 kts
2026-04-15 22:00 34.80446 140.68578 14624 ft 396 kts
2026-04-15 22:00 34.83138 140.68920 14073 ft 380 kts
2026-04-15 22:00 34.85736 140.69212 13414 ft 369 kts
2026-04-15 22:00 34.88270 140.69485 12596 ft 362 kts
2026-04-15 22:01 34.90760 140.69747 11780 ft 356 kts
2026-04-15 22:01 34.93207 140.69990 11001 ft 348 kts
2026-04-15 22:01 34.95599 140.70202 10276 ft 340 kts
2026-04-15 22:01 34.97848 140.70386 10141 ft 315 kts
2026-04-15 22:02 34.99962 140.70564 9957 ft 295 kts
2026-04-15 22:02 35.01979 140.70731 9463 ft 287 kts
2026-04-15 22:02 35.03953 140.70879 8907 ft 280 kts
2026-04-15 22:02 35.05876 140.70969 8352 ft 273 kts 357°
2026-04-15 22:03 35.07731 140.70858 7778 ft 267 kts 354°
2026-04-15 22:03 35.09542 140.70545 7336 ft 256 kts 350°
2026-04-15 22:03 35.11236 140.70207 7220 ft 240 kts 350°
2026-04-15 22:03 35.12846 140.69887 7092 ft 229 kts 351°
2026-04-15 22:04 35.14381 140.69584 6968 ft 218 kts 351°
2026-04-15 22:04 35.15860 140.69294 6844 ft 213 kts 351°
2026-04-15 22:04 35.17295 140.69011 6726 ft 211 kts 351°
2026-04-15 22:04 35.18748 140.68724 6607 ft 215 kts 351°
2026-04-15 22:05 35.20257 140.68427 6482 ft 221 kts 351°
2026-04-15 22:05 35.21778 140.68125 6365 ft 221 kts 352°
2026-04-15 22:05 35.23294 140.67823 6242 ft 221 kts 352°
2026-04-15 22:05 35.24807 140.67521 6116 ft 220 kts 351°
2026-04-15 22:06 35.26303 140.67224 5991 ft 220 kts 351°
2026-04-15 22:06 35.27832 140.66921 5864 ft 219 kts 351°
2026-04-15 22:06 35.29319 140.66628 5734 ft 219 kts 352°
2026-04-15 22:06 35.30826 140.66328 5605 ft 219 kts 351°
2026-04-15 22:07 35.32331 140.66026 5477 ft 219 kts 351°
2026-04-15 22:07 35.33834 140.65726 5344 ft 218 kts 351°
2026-04-15 22:07 35.35329 140.65428 5228 ft 217 kts 352°
2026-04-15 22:07 35.36819 140.65132 5100 ft 216 kts 352°
2026-04-15 22:08 35.38308 140.64835 4975 ft 217 kts 351°
2026-04-15 22:08 35.39789 140.64537 4986 ft 216 kts 352°
2026-04-15 22:08 35.41259 140.64243 4985 ft 217 kts 351°
2026-04-15 22:08 35.42754 140.63943 4983 ft 218 kts 351°
2026-04-15 22:09 35.44242 140.63546 4987 ft 219 kts 344°
2026-04-15 22:09 35.45654 140.62848 4986 ft 219 kts 335°
2026-04-15 22:09 35.46991 140.61937 4985 ft 220 kts 332°
2026-04-15 22:09 35.48316 140.60986 4987 ft 220 kts 332°
2026-04-15 22:10 35.49641 140.60034 4990 ft 221 kts 332°
2026-04-15 22:10 35.50956 140.59090 4991 ft 221 kts 332°
2026-04-15 22:10 35.52289 140.58135 4993 ft 221 kts 332°
2026-04-15 22:10 35.53616 140.57184 4989 ft 221 kts 332°
2026-04-15 22:11 35.54949 140.56227 4870 ft 221 kts 332°
2026-04-15 22:11 35.56276 140.55275 4740 ft 220 kts 332°
2026-04-15 22:11 35.57597 140.54327 4616 ft 219 kts 333°
2026-04-15 22:11 35.58891 140.53398 4505 ft 219 kts 332°
2026-04-15 22:12 35.60199 140.52458 4269 ft 217 kts 333°
2026-04-15 22:12 35.61500 140.51523 3992 ft 216 kts 333°
2026-04-15 22:12 35.62795 140.50592 3719 ft 215 kts 333°
2026-04-15 22:12 35.64084 140.49665 3423 ft 214 kts 333°
2026-04-15 22:13 35.65365 140.48743 3139 ft 208 kts 333°
2026-04-15 22:13 35.66575 140.47870 2867 ft 195 kts 333°
2026-04-15 22:13 35.67729 140.47039 2608 ft 188 kts 334°
2026-04-15 22:13 35.68846 140.46235 2385 ft 185 kts 334°
2026-04-15 22:14 35.69950 140.45441 2111 ft 183 kts 334°
2026-04-15 22:14 35.71050 140.44649 1853 ft 184 kts 334°
2026-04-15 22:14 35.72157 140.43851 1620 ft 184 kts 334°
2026-04-15 22:14 35.73223 140.43080 1358 ft 173 kts 333°
2026-04-15 22:15 35.74217 140.42362 1159 ft 155 kts 333°
2026-04-15 22:15 35.75102 140.41723 954 ft 142 kts 333°
2026-04-15 22:15 35.75940 140.41119 785 ft 137 kts 331°
2026-04-15 22:15 35.76747 140.40537 613 ft 133 kts 332°
2026-04-15 22:16 35.77566 140.39951 435 ft 142 kts 331°
2026-04-15 22:16 35.78386 140.39354 251 ft 133 kts 330°
2026-04-15 22:16 35.79150 140.38802 145 ft 114 kts 331°
2026-04-15 22:16 35.79682 140.38417 143 ft 63 kts 329°
2026-04-15 22:17 35.79926 140.38241 145 ft 28 kts 329°
2026-04-15 22:17 35.80074 140.38079 146 ft 30 kts 307°
2026-04-15 22:17 35.80147 140.37922 144 ft 14 kts 276°
2026-04-15 22:17 35.80099 140.37875 144 ft 9 kts 191°
2026-04-15 22:18 35.80020 140.37912 144 ft 16 kts 149°
2026-04-15 22:18 35.79903 140.38001 144 ft 24 kts 149°
2026-04-15 22:18 35.79749 140.38112 144 ft 27 kts 149°
2026-04-15 22:18 35.79584 140.38233 144 ft 29 kts 149°
2026-04-15 22:19 35.79407 140.38360 144 ft 30 kts 150°
2026-04-15 22:19 35.79221 140.38492 144 ft 27 kts 149°
2026-04-15 22:19 35.79074 140.38603 144 ft 15 kts 136°
2026-04-15 22:19 35.79025 140.38698 144 ft 12 kts 121°
2026-04-15 22:20 35.78969 140.38773 144 ft 11 kts 142°
2026-04-15 22:20 35.78885 140.38825 144 ft 14 kts 162°
2026-04-15 22:20 35.78796 140.38852 144 ft 13 kts 182°
2026-04-15 22:20 35.78714 140.38840 144 ft 11 kts 188°
2026-04-15 22:21 35.78638 140.38826 144 ft 11 kts 189°
2026-04-15 22:21 35.78556 140.38811 144 ft 19 kts 187°
2026-04-15 22:21 35.78410 140.38789 144 ft 21 kts 186°
2026-04-15 22:21 35.78289 140.38774 144 ft 14 kts 178°
2026-04-15 22:22 35.78195 140.38797 143 ft 14 kts 166°
2026-04-15 22:22 35.78107 140.38828 143 ft 12 kts 151°
2026-04-15 22:22 35.78065 140.38917 143 ft 14 kts 108°
2026-04-15 22:22 35.78032 140.39019 143 ft 12 kts 128°
2026-04-15 22:23 35.77967 140.39071 144 ft 11 kts 150°
2026-04-15 22:23 35.77910 140.39123 144 ft 11 kts 128°
2026-04-15 22:23 35.77866 140.39226 144 ft 15 kts 131°
2026-04-15 22:23 35.77785 140.39292 144 ft 13 kts 149°
2026-04-15 22:24 35.77705 140.39349 144 ft 14 kts 150°
2026-04-15 22:24 35.77618 140.39411 144 ft 15 kts 149°
2026-04-15 22:24 35.77553 140.39457 144 ft 17 kts 149°
2026-04-15 22:24 35.77455 140.39528 144 ft 16 kts 150°
2026-04-15 22:25 35.77360 140.39562 144 ft 14 kts 199°
2026-04-15 22:25 35.77271 140.39513 144 ft 15 kts 204°
2026-04-15 22:25 35.77180 140.39464 144 ft 14 kts 204°
2026-04-15 22:25 35.77091 140.39416 144 ft 16 kts 204°
2026-04-15 22:26 35.76988 140.39374 144 ft 14 kts 173°
2026-04-15 22:26 35.76903 140.39413 144 ft 12 kts 175°
2026-04-15 22:26 35.76829 140.39378 144 ft 11 kts 205°
2026-04-15 22:26 35.76763 140.39341 144 ft 10 kts 204°
2026-04-15 22:27 35.76679 140.39295 144 ft 13 kts 204°
2026-04-15 22:27 35.76598 140.39251 144 ft 12 kts 204°
2026-04-15 22:27 35.76524 140.39210 144 ft 11 kts 204°
2026-04-15 22:27 35.76443 140.39166 144 ft 15 kts 204°
2026-04-15 22:28 35.76333 140.39104 144 ft 19 kts 204°
2026-04-15 22:28 35.76218 140.39041 144 ft 17 kts 204°
2026-04-15 22:28 35.76125 140.38988 144 ft 11 kts 213°
2026-04-15 22:28 35.76131 140.38930 144 ft 4 kts 326°
2026-04-15 22:29 35.76168 140.38914 144 ft 7 kts 332°
2026-04-15 22:29 35.76192 140.38898 144 ft 0 kts 330°
2026-04-15 22:29 35.76199 140.38893 144 ft 0 kts 330°